Theta_e
322 322 322 323 323 323 323 323 322 321 320 320 320 319 319 320 320 321 322 316 319 324 327 330 331 332 332 331 331 331 332 332 333 334 334 332 331 332 332 331 331 331 330
323 323 323 324 324 324 323 322 321 320 319 319 319 319 320 320 321 321 321 321 317 319 322 326 328 329 330 329 328 328 328 330 329 329 330 330 330 330 330 330 330 330 330
322 323 324 323 324 323 322 321 320 320 320 319 320 320 321 322 321 320 320 320 319 317 318 323 324 324 324 324 324 325 325 325 325 325 325 326 324 324 325 327 327 327 328
322 322 322 323 323 322 322 320 318 320 320 319 320 321 322 321 320 319 319 318 318 318 317 318 318 318 320 320 320 321 321 321 321 321 321 321 321 321 320 321 322 323 323
322 322 321 322 322 322 320 319 319 317 319 321 320 321 322 320 319 317 316 317 317 316 315 315 313 313 315 316 317 318 318 318 318 317 317 317 317 318 318 317 318 319 320
324 323 322 321 320 319 319 320 318 318 320 320 318 317 320 319 317 316 315 314 315 312 314 310 311 309 311 312 314 316 317 317 316 315 314 314 314 314 315 315 316 316 317
325 324 324 323 322 321 321 320 319 317 318 320 318 318 317 315 315 314 315 314 311 311 308 307 308 308 308 309 312 315 314 313 312 311 309 309 309 310 311 312 312 313 313
326 325 325 325 324 323 322 321 320 318 317 317 316 313 309 310 314 312 311 312 307 306 302 305 305 304 306 306 307 306 306 307 308 307 307 307 308 308 309 310 310 311 311
328 327 327 327 326 325 325 323 321 319 316 315 315 313 306 303 306 310 308 308 303 298 301 302 301 302 304 302 300 298 300 302 304 305 305 305 306 306 307 308 309 310 311
328 327 327 327 326 324 322 320 320 319 317 312 313 311 313 310 301 299 304 303 298 296 298 298 298 301 299 297 296 295 296 298 298 299 301 301 303 304 305 306 306 307 307
327 326 326 324 321 319 318 316 313 312 313 312 309 307 306 304 303 297 293 294 293 294 296 295 298 297 295 294 294 293 294 295 296 296 297 298 300 302 303 304 305 305 306
316 317 315 314 312 311 309 307 306 306 305 303 301 299 299 297 295 294 292 290 288 292 293 296 295 294 292 292 292 292 293 294 295 296 296 296 298 299 301 302 304 304 304
310 310 309 306 305 304 302 302 300 298 298 296 295 294 294 294 294 293 292 289 288 290 294 295 292 292 291 291 291 291 291 292 294 294 295 295 296 297 298 300 301 301 302
310 305 302 301 300 298 297 296 295 294 293 293 292 292 291 291 291 291 290 288 286 287 288 288 292 290 290 290 290 291 290 290 292 293 294 294 296 296 296 298 299 299 300
302 300 298 296 296 295 293 292 292 291 291 290 290 290 290 289 289 290 289 289 287 283 284 287 287 290 289 290 290 290 290 290 291 292 292 294 294 296 298 298 299 301 301
298 295 294 293 293 292 290 290 289 289 289 288 288 287 287 287 287 288 287 287 287 285 283 286 286 287 288 288 289 290 289 289 289 290 292 292 294 297 297 297 298 298 299
295 292 292 291 290 289 288 288 288 287 286 287 286 286 286 286 285 285 286 286 286 285 282 284 286 287 287 287 288 289 289 287 288 288 290 292 294 294 294 295 295 295 296
292 290 289 289 288 288 287 287 286 286 286 285 285 285 284 284 284 284 285 285 285 285 283 282 284 286 286 287 287 287 286 286 287 287 290 293 293 293 293 293 293 293 293
289 288 287 287 286 286 286 286 286 286 285 285 285 284 284 284 283 284 284 284 284 285 285 283 283 285 286 287 286 285 285 285 286 285 287 288 290 291 291 291 291 290 290
287 286 286 285 285 285 285 285 285 285 285 285 285 285 284 284 283 283 283 283 284 284 284 284 283 284 285 286 285 282 281 284 283 284 284 284 285 286 290 289 289 288 288
285 285 284 284 284 285 285 285 285 284 284 284 284 284 284 284 284 285 284 284 284 284 284 282 282 283 283 283 281 281 280 281 283 283 282 281 281 282 281 287 287 287 287
283 283 283 282 283 285 288 287 285 284 283 283 283 283 284 282 284 285 285 286 286 284 283 283 283 281 282 283 282 280 280 278 278 284 281 280 280 279 279 286 286 286 285
282 281 281 282 282 284 288 288 286 284 283 283 283 283 283 283 282 283 284 285 285 286 286 285 283 282 282 282 281 280 279 279 279 282 281 279 280 278 278 281 286 286 285
281 281 280 281 281 284 288 287 285 283 283 282 282 282 282 282 282 283 283 283 283 283 284 285 285 285 284 284 282 281 279 278 280 281 281 277 280 278 278 277 281 282 284
280 279 280 279 281 282 286 286 283 282 281 281 282 282 281 281 282 283 282 279 279 282 286 287 288 287 284 283 282 278 277 276 278 279 281 279 279 278 277 276 275 277 279
279 279 278 278 277 280 285 285 283 281 280 280 280 280 280 281 282 283 283 279 276 279 283 284 284 284 280 278 278 276 276 276 277 278 279 278 278 278 276 275 273 273 273
Wind_Speed
3 3 3 2 2 2 2 2 2 2 3 4 4 4 4 5 5 3 4 6 9 12 14 14 15 16 17 17 18 20 21 22 21 20 20 20 20 19 20 24 26 28 28
3 3 2 2 1 0 0 0 1 2 2 3 4 4 5 5 6 6 4 5 8 10 12 13 15 16 17 19 20 20 20 21 21 21 21 22 21 21 21 20 21 23 25
4 3 2 1 1 1 1 1 1 2 3 3 4 5 5 6 5 6 5 4 5 6 9 12 14 16 17 19 19 20 21 23 23 22 22 22 24 25 25 25 24 24 25
5 4 3 2 2 1 1 1 1 2 3 3 4 5 5 4 5 4 3 5 4 5 6 12 14 18 19 21 21 20 22 21 22 23 23 24 24 25 26 26 26 26 26
5 3 3 3 3 2 1 1 1 1 3 4 4 6 6 4 3 2 7 6 6 7 7 9 15 14 20 22 22 22 22 22 23 23 24 25 26 26 27 28 29 30 28
6 5 3 3 3 2 2 1 1 1 2 3 5 5 5 2 2 4 5 4 6 9 8 11 9 10 17 21 21 22 24 24 25 26 27 27 28 29 29 30 30 31 32
6 5 3 4 4 3 3 2 0 1 1 3 3 5 4 2 3 5 4 5 8 8 11 9 7 7 8 18 20 22 26 26 27 29 30 31 31 31 32 33 32 33 33
6 5 5 4 4 3 3 3 3 1 1 4 3 2 4 3 2 5 6 4 8 8 10 10 10 10 10 8 14 22 29 30 32 32 31 31 32 32 32 33 34 33 34
8 7 6 5 4 3 2 3 3 3 2 1 4 2 2 3 7 2 4 4 7 9 8 9 10 11 11 11 14 18 32 33 33 33 35 35 35 36 35 35 35 36 36
7 5 5 4 4 3 3 2 2 2 3 1 1 2 3 0 1 5 3 4 9 9 10 8 9 11 13 11 19 26 30 29 30 29 30 32 32 33 34 35 35 35 35
3 4 5 5 5 4 4 5 4 4 2 3 2 1 2 3 3 2 5 5 3 6 4 5 7 8 12 13 12 16 25 26 27 28 30 31 32 33 33 34 34 33 34
3 4 5 6 5 5 5 4 5 6 6 6 5 4 2 2 1 1 3 4 6 3 5 6 7 8 10 12 14 20 25 27 29 30 30 30 31 32 33 34 34 34 36
3 6 6 6 4 5 6 7 7 6 5 5 5 4 4 4 1 0 2 3 3 3 2 5 6 7 11 11 12 20 22 26 28 30 30 30 32 33 34 34 34 34 34
7 8 7 7 6 7 8 7 6 6 7 6 7 5 4 3 3 2 1 2 3 2 2 3 3 8 10 11 13 20 15 25 28 29 30 31 32 33 33 33 32 32 31
7 8 9 9 7 8 8 7 6 7 6 5 6 6 5 3 3 3 3 2 1 4 3 2 5 9 10 10 12 15 15 23 27 29 29 29 30 30 30 26 31 27 24
10 10 9 9 9 8 7 7 6 6 8 5 4 6 4 3 4 3 3 3 3 2 4 3 6 12 12 10 13 14 16 20 25 26 26 25 25 29 33 32 34 36 37
11 11 10 11 10 8 6 7 7 7 7 7 6 6 5 4 3 3 3 3 4 3 4 5 9 11 13 13 13 13 12 13 12 24 22 22 24 29 30 30 33 33 33
10 11 11 11 10 8 7 7 7 7 8 7 6 6 4 3 4 3 3 4 4 4 5 10 11 10 12 13 12 12 11 10 11 17 19 23 25 26 26 28 29 30 30
11 9 10 11 10 8 7 6 6 7 7 7 6 6 5 4 4 3 3 3 3 4 4 7 8 8 8 8 9 10 11 10 8 15 18 21 22 24 24 26 26 27 27
12 10 9 9 9 8 7 7 7 7 7 6 6 5 5 4 4 3 1 1 3 5 6 6 7 7 7 7 6 8 10 8 6 6 11 15 18 19 24 24 25 24 24
10 9 11 8 8 7 6 8 7 7 7 6 5 5 4 3 3 3 1 2 3 4 4 6 7 8 8 8 8 6 8 8 1 5 5 8 8 8 10 16 17 22 23
10 9 9 9 8 4 12 12 8 7 6 5 5 4 3 3 2 2 5 5 5 3 4 5 7 8 8 7 6 6 7 6 3 2 4 5 6 7 8 6 18 21 22
11 9 8 8 7 6 13 12 11 5 6 5 5 4 3 1 1 2 7 9 8 10 11 8 6 6 7 6 5 7 8 6 4 3 2 2 4 5 6 8 19 20 19
11 10 8 8 7 5 12 12 10 5 5 5 4 4 3 2 1 2 4 5 4 5 7 5 5 5 5 4 5 7 8 7 6 4 1 2 1 1 3 5 14 17 18
8 7 6 8 8 5 12 11 8 5 5 4 3 2 1 2 3 5 3 4 4 6 8 13 12 7 5 5 5 3 3 3 3 2 2 1 1 2 1 3 5 12 14
8 7 7 6 6 6 11 11 8 4 4 3 2 1 3 3 5 7 4 4 4 6 6 6 3 5 2 2 2 4 3 5 3 2 2 2 2 1 3 1 3 5 5
Wind_Direction
118 112 106 101 80 50 38 27 14 8 356 349 346 345 342 329 324 322 319 315 322 335 344 349 354 352 349 346 342 338 334 332 332 337 333 330 323 315 305 284 277 270 268
136 139 140 136 142 148 144 317 346 341 327 320 324 326 321 316 323 329 335 335 337 352 358 6 5 1 357 350 343 339 336 336 337 332 330 332 330 325 321 315 310 306 297
155 149 161 177 187 193 238 292 313 303 315 328 315 321 321 322 331 343 346 355 6 9 12 17 15 7 358 351 351 347 345 342 338 334 336 334 334 328 326 321 317 314 309
170 170 178 203 197 199 227 282 313 316 300 314 325 322 311 322 344 357 359 12 22 20 15 14 13 1 1 359 356 352 350 350 348 345 341 338 332 330 326 321 315 309 307
179 175 191 210 193 190 216 214 250 282 310 322 319 315 308 342 4 37 11 32 33 28 12 10 2 2 360 359 358 356 355 353 351 346 341 337 332 329 325 322 318 314 309
180 179 191 200 187 186 212 213 244 262 286 325 308 301 323 13 129 32 38 41 55 14 23 1 1 356 358 1 4 1 360 357 352 348 343 338 334 328 323 319 316 312 309
189 195 183 181 184 200 205 191 250 342 324 333 307 340 341 24 123 13 56 49 32 25 358 359 355 355 359 6 8 12 7 356 349 343 338 333 329 325 321 318 315 311 308
185 191 191 194 191 199 203 193 192 174 104 8 8 325 357 347 356 22 19 54 20 2 350 356 356 4 12 17 20 12 0 351 346 341 337 335 332 328 325 321 316 312 307
188 193 204 201 186 205 222 158 177 178 143 73 64 40 360 342 338 1 26 30 18 347 345 348 352 21 27 28 17 4 357 354 351 348 343 338 335 332 327 323 320 318 317
194 193 200 195 175 153 148 128 129 121 129 133 116 20 45 14 256 310 332 4 3 345 341 347 8 33 33 22 10 3 356 348 345 340 340 335 328 326 325 322 318 315 310
172 171 159 137 127 121 116 120 114 109 100 134 143 159 83 70 73 250 291 321 334 327 338 343 36 47 32 15 5 352 347 343 340 338 334 331 329 328 323 321 317 315 310
126 113 114 118 116 115 116 118 110 100 107 104 95 78 91 94 97 272 281 305 324 286 323 52 61 45 23 7 354 345 343 340 338 336 335 333 331 328 328 324 319 319 317
155 149 127 124 120 119 122 115 107 104 99 99 101 91 84 80 73 248 268 312 303 306 333 81 68 40 17 356 350 341 341 341 338 339 339 338 337 334 329 327 326 322 318
150 141 124 119 125 126 114 109 103 102 104 102 104 105 103 83 74 49 46 346 325 309 297 4 75 29 3 350 340 340 338 337 340 344 344 344 339 341 335 331 331 323 322
128 133 131 128 128 116 115 117 118 118 112 108 102 101 99 84 81 75 74 83 55 326 310 74 3 5 347 342 340 337 338 340 345 349 347 349 349 344 336 344 356 343 332
135 138 134 131 121 119 124 121 116 124 115 105 98 99 95 78 72 63 59 71 73 40 298 333 344 334 337 341 341 343 340 344 348 350 356 360 359 16 31 30 22 26 30
141 139 142 135 131 133 130 124 127 128 116 113 104 104 101 96 79 63 69 69 59 21 307 308 328 332 340 342 341 344 345 347 342 357 8 8 36 35 34 31 30 29 30
141 140 146 131 133 138 140 140 135 136 131 122 127 125 116 121 94 80 61 48 26 359 324 326 334 335 340 340 333 348 348 341 343 10 17 26 38 38 36 34 34 33 32
139 141 137 139 141 143 140 133 134 134 127 133 138 139 135 120 93 77 59 40 3 336 319 324 328 329 326 335 350 351 346 342 353 14 25 23 26 36 38 38 38 37 35
147 144 134 133 139 140 135 136 141 133 134 146 145 140 132 117 111 99 64 339 329 341 336 332 320 323 328 345 353 349 342 351 357 8 27 20 24 15 34 37 37 36 37
139 135 133 129 134 138 145 148 142 144 148 143 144 133 131 143 175 191 209 297 291 325 331 318 317 323 332 343 359 337 322 321 338 16 20 26 19 11 359 28 30 31 34
130 135 131 137 137 130 151 152 143 150 150 152 139 132 150 154 186 221 248 276 298 310 299 309 311 320 321 330 337 320 319 329 326 25 7 28 20 28 7 5 34 35 34
139 138 139 136 138 145 155 147 149 149 149 149 144 142 142 153 206 236 264 285 296 302 295 308 284 288 314 329 320 305 302 296 277 312 321 349 10 30 12 358 30 36 39
148 147 143 137 141 157 155 148 147 142 139 140 138 135 155 185 238 250 246 263 294 295 286 274 256 259 258 279 293 291 297 288 277 255 215 275 341 1 8 25 22 28 27
136 137 139 139 142 150 155 149 144 145 140 132 124 124 197 230 272 283 272 272 284 281 282 284 289 238 310 291 286 299 278 280 264 232 76 281 222 272 313 8 14 25 32
134 132 130 137 140 140 154 153 157 150 147 151 156 213 254 251 275 277 264 256 267 261 265 268 242 259 185 247 272 218 254 255 259 271 69 281 253 257 256 174 28 19 17